Weather in Kuminsky

Russia / Khanty-Mansi Autonomous Okrug — Yugra     58°48′26″N   65°58′18″E
temp.,
°C
wind,
m/s
gust,
m/s
humid.,
%
clouds,
%
prec.,
mm/h
press.,
hPa
HPBL,
m
23 october, sat
sat2323:00+3s51598100 1.5 995560
02:00+5ssw51497100 0.4 993667
05:00+7sw51496100 3.4 993934
08:00+8wsw6138897 0.1 9941166
11:00+10wsw6138238 0.2 9961223
14:00+9wsw71380100 0.1 9981041
17:00+8wsw6137294 0.1 9991062
20:00+6wsw6137561 0.0 10021070
24 october, sun
sun2423:00+5wsw613775 0.1 1004951
02:00+4wsw613775 0.0 1005921
05:00+3wsw513785 0.0 1007788
08:00+3wsw512875 0.0 1008610
11:00+5wsw598093 0.0 1010860
14:00+6wsw367195 0.0 1010947
17:00+5sse2585100 0.0 100998
20:00+4sse2595100 0.7 1006158
25 october, mon
mon2523:00+4nnw0096100 3.9 100442
02:00+3wsw3697100 2.2 1005634
05:00+4w6118557 3.1 1006891
08:00+3w5977100 0.0 1008957
11:00+4wsw4881100 0.0 1010881
14:00+4sw4774100 0.0 1011918
17:00+3ssw3879100 0.0 1010575
20:00+3ssw41082100 0.0 1009496
26 october, tue
tue2623:00+2sw41092100 0.0 1008677
02:00−1nw41095100 1.6 1008574
05:00−1wnw4986100 1.9 1010815
08:00−3wnw411855 0.0 1011639
11:00−1wnw5107339 0.0 10121117
14:000wnw596696 0.1 10141341
17:00−1wnw410715 0.1 1015764
20:00−2w410745 0.0 1017613
27 october, wed
wed2723:00−3w39775 0.0 1019448
02:00−4wsw39825 0.0 1020358
05:00−5wsw37825 0.0 1022211
08:00−5ssw26835 0.0 1022164
11:00−1ssw47618 0.0 1022550
14:00+1ssw475998 0.0 10211024
17:000s4107524 0.0 1020545
20:00−1ssw51369100 0.0 1018663